Location: Newark
(42.8481°N, 0.4872°E)
Time: 08:28:22
(UTC+00:00)

SR - Pass Details

Date: 03 November 2020
Orbit: 579 x 876 km, 66.7° (Epoch: 29 November)

Event Time Altitude Azimuth Distance (km) Brightness Sun altitude
Rises 09:32:16 0° 328° (NNW) 3,092 ? 24.7°
Reaches altitude 10° 09:34:32 10° 328° (NNW) 2,216 ? 25.0°
Maximum altitude 09:39:37 85° 242° (WSW) 777 ? 25.5°
Drops below altitude 10° 09:45:09 10° 153° (SSE) 2,396 ? 26.0°
Sets 09:47:40 0° 153° (SSE) 3,363 ? 26.3°
